STARLINK-1728

Last updated on Fri Nov 06 2020 00:02:03 GMT+0000 (Coordinated Universal Time)

1 46582U 20070BC 20310.58343750 -.00031789 00000-0 -34258-3 0 9990 2 46582 53.0031 294.1685 0001191 67.5079 63.1675 15.62760943 1776
UTC large
Height (km)
Speed (km/s)
/
Latitude / Longitude
Inclination (degrees)
Orbital Period (minutes)
Azimuth
Elevation
Range (km)
Doppler Factor

Next 0 passes for location: London (51.5072 / 0.1276)

Sorry there are no passes over London.